Change the Weather History Date:

Friday, August 9, 2013

  Actual Average Record
Temperature  
Mean Temperature 73 °F 68 °F  
Max Temperature 88 °F 86 °F 95 °F (2000)
Min Temperature 57 °F 51 °F 39 °F (2002)
Degree Days  
Heating Degree Days 0 1  
Month to date heating degree days 0 2  
Since 1 June heating degree days 117 204  
Since 1 July heating degree days 0 32  
Cooling Degree Days 8 4  
Month to date cooling degree days 41 36  
Year to date cooling degree days 295 150  
Since 1 June cooling degree days 293 146  
Growing Degree Days 22 (Base 50)    
Moisture  
Dew Point 41 °F    
Average Humidity 40    
Maximum Humidity 67    
Minimum Humidity 12    
Precipitation  
Precipitation T in 0.04 in 0.05 in (1979)
Month to date precipitation T 0.22  
Year to date precipitation 5.12 8.18  
Sea Level Pressure  
Sea Level Pressure 29.93 in    
Wind  
Wind Speed 6 mph (ENE)    
Max Wind Speed 14 mph    
Max Gust Speed 28 mph    
Visibility 10 miles    
Events      
T = Trace of Precipitation, MM = Missing Value Source: NWS Daily Summary

Daily Weather History Graph

Daily Weather History Graph

Search for Another Location

Airport or City:

Trip Planner

Search our weather history database for the weather conditions in past years. The results will help you decide how hot, cold, wet, or windy it might be!

Date:

Astronomy

Aug. 09, 2013 Rise Set
Actual Time 6:25 AM MDT 8:39 PM MDT
Civil Twilight 5:53 AM MDT 9:11 PM MDT
Nautical Twilight 5:13 AM MDT 9:50 PM MDT
Astronomical Twilight 4:29 AM MDT 10:33 PM MDT
Moon 9:22 AM MDT (8/9) 9:42 PM MDT (8/9)
Length of Visible Light 15h 18m
Length of Day
14h 14m
Waxing Crescent, 8% of the Moon is Illuminated
Aug 9
Waxing Crescent
Aug 14
First Quarter
Aug 20
Full
Aug 28
Last Quarter
Sep 5
New

Hourly Weather History & Observations

Time (MDT) Temp. Dew Point Humidity Pressure Visibility Wind Dir Wind Speed Gust Speed Precip Events Conditions
12:53 AM 63.0 °F 46.0 °F 54% 29.95 in 10.0 mi ENE 5.8 mph - N/A   Clear
1:53 AM 62.1 °F 46.0 °F 56% 29.94 in 10.0 mi NE 5.8 mph - N/A   Clear
2:53 AM 62.1 °F 46.0 °F 56% 29.93 in 10.0 mi Calm Calm - N/A   Mostly Cloudy
3:53 AM 63.0 °F 45.0 °F 52% 29.95 in 10.0 mi NNE 4.6 mph - N/A   Overcast
4:53 AM 62.1 °F 48.0 °F 60% 29.93 in 10.0 mi NNE 3.5 mph - 0.00 in   Overcast
5:53 AM 59.0 °F 46.9 °F 64% 29.97 in 10.0 mi NNE 8.1 mph - N/A   Mostly Cloudy
6:53 AM 57.0 °F 46.9 °F 69% 29.98 in 10.0 mi NNE 4.6 mph - N/A   Mostly Cloudy
7:53 AM 59.0 °F 46.9 °F 64% 30.00 in 10.0 mi East 3.5 mph - N/A   Partly Cloudy
8:53 AM 62.1 °F 48.0 °F 60% 30.00 in 10.0 mi ENE 3.5 mph - N/A   Scattered Clouds
9:53 AM 68.0 °F 50.0 °F 52% 29.99 in 10.0 mi NE 3.5 mph - N/A   Clear
10:53 AM 75.9 °F 45.0 °F 33% 29.97 in 10.0 mi ENE 11.5 mph 16.1 mph N/A   Clear
11:53 AM 80.1 °F 42.1 °F 26% 29.96 in 10.0 mi East 9.2 mph - N/A   Clear
12:53 PM 82.0 °F 41.0 °F 23% 29.94 in 10.0 mi Variable 5.8 mph - N/A   Clear
1:53 PM 84.0 °F 37.9 °F 19% 29.93 in 10.0 mi SW 9.2 mph - N/A   Clear
2:53 PM 86.0 °F 36.0 °F 17% 29.91 in 10.0 mi SSW 10.4 mph - N/A   Clear
3:53 PM 87.1 °F 33.1 °F 15% 29.89 in 10.0 mi West 10.4 mph - N/A   Clear
4:53 PM 84.9 °F 34.0 °F 16% 29.87 in 10.0 mi Variable 4.6 mph - N/A   Clear
5:53 PM 87.1 °F 28.9 °F 12% 29.86 in 10.0 mi SW 13.8 mph 27.6 mph N/A   Clear
6:53 PM 86.0 °F 28.0 °F 12% 29.86 in 10.0 mi SW 8.1 mph - N/A   Clear
7:53 PM 82.9 °F 32.0 °F 16% 29.86 in 10.0 mi South 5.8 mph - N/A   Clear
8:53 PM 75.9 °F 37.9 °F 25% 29.88 in 10.0 mi Calm Calm - N/A   Clear
9:53 PM 73.9 °F 34.0 °F 23% 29.89 in 10.0 mi SSE 5.8 mph - N/A   Clear
10:53 PM 66.0 °F 41.0 °F 40% 29.91 in 10.0 mi ENE 6.9 mph - N/A   Clear
11:53 PM 64.0 °F 39.9 °F 41% 29.92 in 10.0 mi NE 5.8 mph - N/A   Clear